Regional Weather Roundup
Issued by NWS Cleveland, OH

Home | Current Version | Previous Version | Graphics & Text | Print | Product List | Glossary On
Versions: 1 2 3 4 5 6 7 8 9 10 11 12 13 14 15 16 17 18 19 20 21 22 23 24 25 26 27 28 29 30 31 32 33 34 35 36 37 38 39 40 41 42 43 44 45 46 47 48 49 50
000
ASUS41 KCLE 250910
RWRCLE
OHIO REGIONAL WEATHER ROUNDUP
NATIONAL WEATHER SERVICE WILMINGTON, OH
500 AM EDT MON SEP 25 2017

NOTE: "FAIR" INDICATES FEW OR NO CLOUDS BELOW 12,000 FEET WITH NO
SIGNIFICANT WEATHER AND/OR OBSTRUCTIONS TO VISIBILITY.

OHZ001>008-015>018-024>027-034-035-043-044-251000-
   NORTHWEST OHIO

CITY           SKY/WX    TMP DP  RH WIND       PRES   REMARKS
DEFIANCE       FAIR      63  61  93 CALM      30.05S FOG
FINDLAY        FAIR      69  63  81 CALM      30.04S
TOLEDO EXPRESS FAIR      67  66  97 CALM      30.05S
TOLEDO EXEC    FAIR      67  65  93 CALM      30.05S FOG
LIMA           FAIR      62  60  93 CALM      30.05F
$$

OHZ009>014-019>023-028>033-038-089-251000-
   NORTHEAST OHIO

CITY           SKY/WX    TMP DP  RH WIND       PRES   REMARKS
CLE-HOPKINS    MOCLDY    71  65  81 CALM      30.07S
CLE-LAKEFRONT  FAIR      74  64  71 SE5       30.04S
CUY CO. ARPT   NOT AVBL
LORAIN-ELYRIA  FAIR      64  59  83 SW3       30.06S
ASHTABULA      FAIR      69  66  90 SE6       30.09S
AKRON-CANTON   FAIR      68  63  84 CALM      30.08S
WOOSTER        FAIR      60  59  96 CALM      30.08R
MANSFIELD      FAIR      66  61  84 CALM      30.08S
YOUNGSTOWN     MOCLDY    66  64  93 E6        30.09S
$$

OHZ042-051>053-060>062-070>072-077>081-251000-
  SOUTHWEST OHIO

CITY           SKY/WX    TMP DP  RH WIND       PRES   REMARKS
CINC-COVINGTON FAIR      67  62  84 N3        30.04R
CINC-LUNKEN    FAIR      60  60 100 CALM      30.04S
HAMILTON       FAIR      60  59  96 CALM      30.05S
DAYTON         FAIR      65  58  78 CALM      30.06S
WRIGHT-PAT AFB FAIR      61  61 100 CALM      30.04S
DAYTON GENERAL FAIR      65  58  78 NE3       30.04S
WILMINGTON     FAIR      62  60  93 CALM      30.04S
$$

OHZ036-037-039>041-045>050-054>059-063>069-073>076-082>088-251000-
  CENTRAL AND SOUTHEAST OHIO

CITY           SKY/WX    TMP DP  RH WIND       PRES   REMARKS
COLUMBUS       FAIR      67  63  87 CALM      30.04S
OSU AIRPORT    FAIR      66  64  93 N3        30.05R
BOLTON FIELD   FAIR      62  60  95 CALM      30.05S
RICKENBACK AFB FAIR      66  63  91 N3        30.03F
NEWARK         FAIR      63  61  93 CALM      30.05S
MARION         FAIR      63  59  87 CALM      30.06S
LANCASTER      FAIR      60  59  96 CALM      30.05S
ZANESVILLE     FAIR      64  62  93 CALM      30.06R
NEW PHILLY     FAIR      64  63  96 CALM      30.07S FOG
$$




USA.gov is the U.S. government's official web portal to all federal, state and local government web resources and services.